Regional Weather Roundup
Issued by NWS

Home | Current Version | Previous Version | Graphics & Text | Print | Product List | Glossary Off
Versions: 1 2 3 4 5 6 7 8 9 10 11 12 13 14 15 16 17 18 19 20 21 22 23 24 25 26 27 28 29 30 31 32 33 34 35 36 37 38 39 40 41 42 43 44 45 46 47 48 49 50

000
ASUS43 KMPX 280810
RWRMN
WEATHER ROUNDUP FOR MINNESOTA
NATIONAL WEATHER SERVICE TWIN CITIES/CHANHASSEN MN
300 AM CDT WED JUN 28 2017


NOTE: "FAIR" INDICATES FEW OR NO CLOUDS BELOW 12,000 FEET WITH NO
SIGNIFICANT WEATHER AND/OR OBSTRUCTIONS TO VISIBILITY. N/A MEANS
CURRENT SKY AND/OR WEATHER CONDITIONS ARE NOT AVAILABLE.

MNZ060>063-068>070-280900-
   Twin Cities Metro

CITY           SKY/WX    TMP DP  RH WIND       PRES   REMARKS
TWIN CITIES    CLOUDY    67  48  50 SE12      29.70F
ST PAUL        CLOUDY    64  50  60 SE15      29.71F
CRYSTAL        CLOUDY    67  47  48 S16       29.68F
BLAINE         CLOUDY    68  48  49 S12G20    29.69F
LAKEVILLE      CLOUDY    64  50  59 SE10      29.70F
EDEN PRAIRIE   CLOUDY    68  50  52 S8        29.71F
SOUTH ST PAUL  CLOUDY    65  47  53 S7        29.71F
LAKE ELMO      FAIR      64  48  55 SE10G16   29.73F
$$
MNZ001>005-007-008-013>017-022>024-027-028-280900-
   Northwest Minnesota

CITY           SKY/WX    TMP DP  RH WIND       PRES   REMARKS
BEMIDJI        CLOUDY    60  52  74 SE7       29.63F
HALLOCK        CLOUDY    64  52  63 SE9       29.55F
ROSEAU         CLOUDY    61  52  72 SE8       29.60S
WARROAD        CLOUDY    63  52  67 S8        29.62S
THIEF RVR FALL LGT RAIN  64  50  60 S9        29.60F
CROOKSTON      RAIN      59  57  94 S14       29.58F
FOSSTON          N/A     61  52  72 SW5       29.64R
DETROIT LAKES  RAIN      61  54  77 SE9       29.60R
MOORHEAD       CLOUDY    63  59  88 E5        29.54R
PARK RAPIDS    CLOUDY    61  49  64 SE9       29.64F
MAHNOMEN       TSTM      59  56  87 SE8       29.59S
$$
MNZ006-009>011-018-025>026-280900-
   North Central Minnesota

CITY           SKY/WX    TMP DP  RH WIND       PRES   REMARKS
BAUDETTE       CLOUDY    58  49  72 SE7       29.65R
FLAG ISLAND    CLOUDY    66  52  59 SE13      29.63S
INTL FALLS     CLOUDY    53  45  74 SE8       29.68F
WASKISH        CLOUDY    61  50  67 SE7       29.63F
BIG FORK       CLOUDY    57  46  67 CALM      29.68R
LONGVILLE      CLOUDY    55  54  94 E3        29.64F
GRAND RAPIDS   CLOUDY    57  46  66 SE7       29.71S
CRANE LAKE     CLEAR     45  45 100 CALM      29.73F
ORR            CLOUDY    54  43  66 SE3       29.69S
COOK           CLEAR     52  45  76 CALM      29.73R
WALKER         FAIR      59  51  72 SE5       29.62F
$$
MNZ012-019>021-037-280900-
   Northeast Minnesota

CITY           SKY/WX    TMP DP  RH WIND       PRES   REMARKS
DULUTH         PTCLDY    57  46  66 S9        29.73F
ELY            CLEAR     50  45  81 CALM      29.73F
HIBBING        CLOUDY    45  44  97 CALM      29.71F
EVELETH        CLEAR     46  42  84 CALM      29.74R
DULUTH HARBOR  CLEAR     61  50  67 S3        29.74S
TWO HARBORS    CLEAR     50  45  81 CALM      29.73F
SILVER BAY     CLEAR     45  45 100 CALM      29.73F
GRAND MARAIS     N/A     50  48  93 CALM      29.78F
G MARAIS ARPRT CLOUDY    54  45  71 S3        29.81F
$$
MNZ029>031-032-039>041-046>048-054>057-064-280900-
   West Central Minnesota

CITY           SKY/WX    TMP DP  RH WIND       PRES   REMARKS
FERGUS FALLS   HVY RAIN  64  57  77 SE17G25   29.54F
WHEATON        CLOUDY    66  57  72 SE15      29.52F
MORRIS         CLOUDY    66  55  68 SE13G18   29.54F
ALEXANDRIA     TSTM      59  58  96 E16       29.63F VSB 1
ELBOW LAKE     MOCLDY    65  56  73 E16G24    29.56F
WADENA         CLOUDY    63  50  63 SE8       29.64R THUNDER
GLENWOOD       RAIN      61  57  88 S15       29.63F
APPLETON       CLOUDY    70  57  64 SE9G17    29.54F
BENSON         CLOUDY    64  57  77 S14       29.59F
ORTONVILLE     CLOUDY    68  61  77 SE7       29.51F
MADISON        CLOUDY    72  64  78 S16       29.52F
WILLMAR        RAIN      63  61  94 SE12G22   29.63F
$$
MNZ033>034-036-042>043-049>051-058-059-280900-
   Central Minnesota

CITY           SKY/WX    TMP DP  RH WIND       PRES   REMARKS
ST CLOUD       CLOUDY    65  51  60 SE12      29.65F
SAUK CENTRE    CLOUDY    64  54  69 S13       29.65R
PAYNESVILLE    CLOUDY    66  54  64 S13       29.65R
AITKIN         CLOUDY    55  50  82 SE5       29.66S
PINE RIVER     CLOUDY    57  52  82 SE6       29.69F
BRAINERD       CLOUDY    60  49  66 S9        29.65F
STAPLES        CLOUDY    61  48  63 SE7       29.64R
LONG PRAIRIE   CLOUDY    59  52  77 SE5       29.66R
LITTLE FALLS   CLOUDY    63  46  55 E7        29.65F
BUFFALO        CLOUDY    66  49  53 SE10      29.68S
MAPLE LAKE     CLOUDY    67  53  60 S9        29.67F
HUTCHINSON     CLOUDY    66  58  75 SE13G23   29.67S
$$
MNZ037-044-045-052-053-280900-
   East Central Minnesota

CITY           SKY/WX    TMP DP  RH WIND       PRES   REMARKS
PRINCETON      CLOUDY    63  50  63 E3        29.68F
MORA           CLOUDY    59  46  63 SE7       29.71F
CAMBRIDGE      CLOUDY    64  48  55 SE8       29.68F
RUSH CITY      MOCLDY    59  48  67 SE7       29.71F
MOOSE LAKE     CLOUDY    61  45  55 S3        29.70R
HINCKLEY       FAIR      59  48  67 SE8       29.72F
CLOQUET        CLEAR     55  45  67 E5        29.72F
MCGREGOR       CLOUDY    59  46  63 SE6       29.70S
$$
MNZ071>073-080-081-089-090-097-098-280900-
   Southwest Minnesota

CITY           SKY/WX    TMP DP  RH WIND       PRES   REMARKS
MONTEVIDEO     CLOUDY    66  61  82 S15       29.57F
GRANITE FALLS  CLOUDY    67  64  90 SE20G25   29.60F
CANBY          CLOUDY    71  64  77 S12G24    29.53F
MARSHALL       LGT RAIN  68  64  87 S24G38    29.56F
REDWOOD FALLS  TSTM      66  62  87 S21G28    29.62F FOG
OLIVIA         TSTM      61  57  88 SE5       29.64F
PIPESTONE      TSTM      66  64  94 S9        29.63F
WINDOM         TSTM      63  61  94 SE23G30   29.68F
WORTHINGTON    RAIN      63  61  94 E12       29.67F
TRACY          RAIN      65  62  87 S21G33    29.64R
SLAYTON        LGT RAIN  64  62  96 SE21G26   29.65F
$$
MNZ065>067-074>077-082>085-091>093-280900-
   South Central Minnesota

CITY           SKY/WX    TMP DP  RH WIND       PRES   REMARKS
MANKATO        TSTM      64  58  80 S14G22    29.72R
NEW ULM        HVY RAIN  63  61  94 S12       29.67F
ST JAMES       RAIN      64  63  94 SE6       29.71F
FAIRMONT       RAIN      64  63  94 SW7       29.71R
GLENCOE        DRIZZLE   64  61  90 SE17G26   29.65F
FARIBAULT      CLOUDY    70  54  56 SE15G24   29.71F
OWATONNA       CLOUDY    70  54  56 SE20G28   29.70F
WASECA         CLOUDY    68  54  60 S16G26    29.71F
ALBERT LEA     CLOUDY    64  54  68 S15G21    29.74S
$$
MNZ078>079-086>088-094>096-280900-
   Southeast Minnesota

CITY           SKY/WX    TMP DP  RH WIND       PRES   REMARKS
ROCHESTER      CLOUDY    65  50  58 S15G25    29.78F
RED WING       CLOUDY    66  45  45 SE9       29.75S
STANTON        CLOUDY    67  50  53 S14G20    29.72F
DODGE CENTER   CLOUDY    66  48  52 S21G26    29.75F
WINONA         MOCLDY    63  46  55 SE7       29.81F
AUSTIN         LGT RAIN  66  50  55 S13G18    29.74F
PRESTON        CLOUDY    65  49  56 S15G21    29.81S
$$
ABBREVIATIONS USED IN REMARKS
   TC - TEMPERATURES IN CELSIUS
  WCI - WIND CHILL INDEX
   HX - HEAT INDEX
  VSB - VISIBILITY
$$



USA.gov is the U.S. government's official web portal to all federal, state and local government web resources and services.